Regional Weather Roundup
Issued by NWS

Home | Current Version | Previous Version | Text Only | Print | Product List | Glossary Off
Versions: 1 2 3 4 5 6 7 8 9 10 11 12 13 14 15 16 17 18 19 20 21 22 23 24 25 26 27 28 29 30 31 32 33 34 35 36 37 38 39 40 41 42 43 44 45 46 47 48 49 50

000
ASUS43 KOAX 190202
RWRNE

WEATHER ROUNDUP FOR NEBRASKA
NATIONAL WEATHER SERVICE OMAHA NE
800 PM CST SAT NOV 18 2017

NOTES: SATELLITE DATA IS BEING USED TO AUGMENT CLOUD COVER ABOVE
       12000 FEET.
       "FAIR" INDICATES FEW OR NO CLOUDS BELOW 12,000 FEET WITH NO
       SIGNIFICANT WEATHER AND/OR OBSTRUCTIONS TO VISIBILITY.


NEZ001>004-019>022-054>056-190300-
NEBRASKA PANHANDLE

CITY           SKY/WX    TMP DP  RH WIND       PRES   REMARKS
SCOTTSBLUFF    CLEAR     27  16  63 NW7       30.22R WCI  19
ALLIANCE       CLEAR     25  14  63 W12       30.19S WCI  14
CHADRON        CLEAR     25  18  74 SW9       30.20R WCI  15
GORDON         FAIR      32  18  57 W10       30.17R WCI  23
KIMBALL        CLEAR     30  14  51 NW7       30.21S WCI  24
SIDNEY         CLEAR     31  17  56 NW12      30.22R WCI  22
$$

NEZ057>060-069>072-079>082-190300-
SOUTHWEST NEBRASKA

CITY           SKY/WX    TMP DP  RH WIND       PRES   REMARKS
NORTH PLATTE   CLEAR     28  19  69 CALM      30.22R
IMPERIAL       CLEAR     37  15  40 NW12      30.24R WCI  29
LEXINGTON      CLEAR     31  23  73 W7        30.22R WCI  24
MCCOOK         CLEAR     34  22  61 NW9       30.24R WCI  27
OGALLALA       CLEAR     31  18  60 CALM      30.23R
$$

NEZ005>010-023>029-035>040-094-190300-
NORTH CENTRAL NEBRASKA

CITY           SKY/WX    TMP DP  RH WIND       PRES   REMARKS
VALENTINE      PTCLDY    29  22  75 W6        30.16F WCI  23
AINSWORTH      CLOUDY    33  25  72 NW3       30.17S
BROKEN BOW     CLEAR     32  23  69 NW8       30.19R WCI  25
O`NEILL        CLEAR     28  23  82 W5        30.17S WCI  22
ORD            CLEAR     29  23  78 W6        30.18R WCI  23
THEDFORD       CLEAR     32  22  65 W5        30.19S WCI  27
$$

NEZ041-046>049-061>064-073>077-083>087-190300-
SOUTH CENTRAL NEBRASKA

CITY           SKY/WX    TMP DP  RH WIND       PRES   REMARKS
GRAND ISLAND   CLEAR     33  26  75 W7        30.20R WCI  27
AURORA         CLEAR     31  26  80 NW6       30.20R WCI  25
HASTINGS       CLEAR     30  22  72 NW9       30.21R WCI  22
HOLDREGE       CLEAR     35  24  66 W7        30.21S WCI  29
KEARNEY        CLEAR     36  24  62 W7        30.21R WCI  30
YORK           CLEAR     32  28  86 CALM      30.19R
$$

NEZ011>018-030>034-042>045-190300-
NORTHEAST NEBRASKA

CITY           SKY/WX    TMP DP  RH WIND       PRES   REMARKS
NORFOLK        CLEAR     30  23  75 NW7       30.16R WCI  23
ALBION         CLEAR     31  24  75 NW3       30.18S
BLAIR          CLEAR     33  23  65 NW13      30.16R WCI  24
COLUMBUS       CLEAR     29  24  82 NW9       30.20R WCI  20
FREMONT        CLEAR     32  24  73 NW7       30.19R WCI  25
TEKAMAH        CLEAR     30  20  66 NW8       30.18R WCI  22
WAYNE          CLEAR     30  21  69 NW9       30.17R WCI  22
$$

NEZ050>053-065>068-078-088>093-190300-
SOUTHEAST NEBRASKA

CITY           SKY/WX    TMP DP  RH WIND       PRES   REMARKS
LINCOLN        CLEAR     37  26  64 NW8       30.20R WCI  31
OMAHA EPPLEY   CLEAR     34  22  61 NW14      30.17R WCI  25
BEATRICE       CLEAR     29  25  85 NW6       30.19R WCI  23
FALLS CITY     CLEAR     37  27  67 NW9       30.17R WCI  30
NEBRASKA CITY  CLEAR     35  28  73 N8        30.17R WCI  29
PLATTSMOUTH    CLEAR     35  27  71 NW8       30.17R WCI  29
$$

NEZ044-045-051>053-067-190300-
OMAHA AREA

CITY           SKY/WX    TMP DP  RH WIND       PRES   REMARKS
OMAHA EPPLEY   CLEAR     34  22  61 NW14      30.17R WCI  25
BLAIR          CLEAR     33  23  65 NW13      30.16R WCI  24
FREMONT        CLEAR     32  24  73 NW7       30.19R WCI  25
OFFUTT AFB     CLEAR     36  22  56 NW10      30.17R WCI  29
PLATTSMOUTH    CLEAR     35  27  71 NW8       30.17R WCI  29
WAHOO          FAIR      30  25  80 N6        30.19R WCI  24
$$




USA.gov is the U.S. government's official web portal to all federal, state and local government web resources and services.